Погода в Колове

Россия / Алтайский край     52°05′14″N   85°37′26″E
темп.,
°C
ветер,
м/с
пор.,
м/с
влажн.,
%
обл.,
%
осадки,
мм/ч
давл.,
гПа
погр.,
м
27 октября, ср
ср2701:00+8зюз344557 0.0 101560
04:00+7зсз61358100 0.0 1019527
07:00+4сз4779100 0.0 1024834
10:00+2сз2598100 0.5 1026274
13:00+1ссз2398100 2.3 1027210
16:000ссз1298100 1.4 1028127
19:000ссз1199100 3.1 102882
22:000сз1198100 1.4 1029127
28 октября, чт
чт2801:00−1сз0198100 1.8 103019
04:00−2ю1198100 0.0 103111
07:00−3ююв1197100 0.0 103110
10:00−1вюв1188100 0.0 103087
13:00+1св1183100 0.0 1030247
16:00+1в118538 0.0 1029232
19:00−1ю119472 0.0 102922
22:00−2ю229414 0.0 102914
29 октября, пт
пт2901:00−3ю22935 0.0 102817
04:00−3ююв229152 0.0 102820
07:00−2ююв2289100 0.0 102824
10:00+2ююв2283100 0.0 102755
13:00+6ююв1177100 0.0 102681
16:00+6ссв1181100 0.0 102513
19:00+3ю2284100 0.0 102611
22:00+2ю2283100 0.0 102619
30 октября, сб
сб3001:00+2ю337883 0.0 102636
04:00+2ююз3278100 0.0 102625
07:00+2ю3378100 0.0 102622
10:00+3юз1176100 0.0 102712
13:00+6з3665100 0.0 1027600
16:00+5з71352100 0.0 10281010
19:00+3з51167100 0.0 1031590
22:00+2сз0278100 0.0 103298
31 октября, вс
вс3101:00−1вюв1190100 0.0 103110
04:00−1ююв2288100 0.0 102824
07:00−1ююв2281100 0.0 102533
10:00+2ююв2366100 0.0 102183
13:00+5сз1254100 0.0 101777
16:00+4св1162100 0.1 101540
19:00+2ю2576100 0.5 1015257
22:00+3зюз9186796 0.0 10151361